Location: Guayaquil
(2.1667°S, 79.9000°W)
Time: 10:16:04
(UTC-05:00)

OTV 5 (USA 277) - Visible Passes

Search period start: 19 July 2018 00:00
Search period end: 29 July 2018 00:00
Orbit: 312 x 321 km, 54.5° (Epoch: 05 July)

Date Brightness Start Highest point End Pass type
(mag) Time Alt. Az. Time Alt. Az. Time Alt. Az.
19 Jul ? 05:43:01 12° SSW 05:45:30 73° ESE 05:48:10 10° NE visible
20 Jul ? 05:57:51 10° WSW 05:59:51 19° WNW 06:01:51 10° N visible
21 Jul ? 04:41:39 17° ENE 04:41:39 17° ENE 04:42:33 10° ENE visible
22 Jul ? 04:56:22 16° N 04:56:22 16° N 04:57:06 10° NNE visible
